Hourly Data Report for October 31, 2005

TORONTO CITY
ONTARIO

43°40'00.000" N
79°24'00.000" W
112.50 m
6158355
71508
XTO

Download Data

Hourly Data (October 2005)
Hourly Data Report for October 31, 2005
TIME
LST
Temp Definition
°C
Dew Point Definition
°C
Rel Hum Definition
%
Precip. Amount Definition
mm

Wind Dir Definition
10's deg

Wind Spd Definition
km/h
Visibility Definition
km
Stn Press Definition
kPa
Hmdx Definition


Wind Chill Definition


Weather Definition


00:00 10.1 6.4 78   LegendMM LegendMM   100.63     LegendNANA
01:00 10.0 7.0 82   LegendMM LegendMM   100.62     LegendNANA
02:00 10.0 7.4 84   LegendMM LegendMM   100.60     LegendNANA
03:00 9.9 7.3 84   LegendMM LegendMM   100.56     LegendNANA
04:00 9.8 7.4 85   LegendMM LegendMM   100.54     LegendNANA
05:00 9.6 7.6 87   LegendMM LegendMM   100.50     LegendNANA
06:00 9.8 7.6 86   LegendMM LegendMM   100.47     LegendNANA
07:00 10.2 7.5 83   LegendMM LegendMM   100.46     LegendNANA
08:00 10.9 8.0 82   LegendMM LegendMM   100.44     LegendNANA
09:00 11.9 8.3 79   LegendMM LegendMM   100.41     LegendNANA
10:00 11.6 7.9 78   LegendMM LegendMM   100.41     LegendNANA
11:00 10.4 8.8 90   LegendMM LegendMM   100.39     LegendNANA
12:00 11.3 9.0 86   LegendMM LegendMM   100.35     LegendNANA
13:00 12.1 9.0 81   LegendMM LegendMM   100.30     LegendNANA
14:00 12.8 9.4 80   LegendMM LegendMM   100.27     LegendNANA
15:00 13.4 9.8 79   LegendMM LegendMM   100.28     LegendNANA
16:00 14.1 9.9 76   LegendMM LegendMM   100.30     LegendNANA
17:00 13.9 10.0 77   LegendMM LegendMM   100.31     LegendNANA
18:00 13.7 10.1 79   LegendMM LegendMM   100.31     LegendNANA
19:00 13.1 10.8 86   LegendMM LegendMM   100.31     LegendNANA
20:00 12.5 10.4 87   LegendMM LegendMM   100.30     LegendNANA
21:00 12.0 10.3 89   LegendMM LegendMM   100.27     LegendNANA
22:00 11.5 10.1 91   LegendMM LegendMM   100.19     LegendNANA
23:00 11.6 10.4 92   LegendMM LegendMM   100.12     LegendNANA

Notes on Data Quality.

Legend

  • E = Estimated
  • M = Missing
  • NA = Not Available*
  • [empty] = Indicates an unobserved value
Date modified: